OneWeb SL0532

operational
NORAD ID: 55140 Int'l Des: 2023-004 Owner: ONEWEBN Country: UK Constellation: oneweb
LEOCIRCULARPOLARONEWEB_TYPE

关于 OneWeb SL0532

正在加载描述...

实时位置

正在加载3D地球...

即将过境

高度历史

Altitude vs Time

uPlot chart will show altitude changes over time

两行轨道根数

1 55140U 23004A 26036.96750922 .00000036 00000-0 60303-4 0 9996
2 55140 87.9106 31.9306 0002234 86.4215 273.7172 13.17647935150301
Epoch: Feb 5, 2026 • Age: 6 hours

当前状态

高度 1198.5 km
速度 7.26 km/s
星下点 40.28°N, 7.16°W
发射日期 Jan 10, 2023
运行时间 3 years
类型 internet

技术详情

分类 Payload
质量 148.00 kg
干质量 140.00 kg
总质量 148.00 kg
长度 1.30 m
直径 1.00 m
跨度 5.00 m
形状 Trapezoid+2 pan
制造商 ONEWUS
平台类型 ARROW
阶段状态 In Orbit
所有者/国家 ONEWEBN/UK

大型星座

Loading constellations...